TimeWET,TemperatureF,Dew PointF,Humidity,Sea Level PressureIn,VisibilityMPH,Wind Direction,Wind SpeedMPH,Gust SpeedMPH,PrecipitationIn,Events,Conditions,WindDirDegrees,DateUTC
12:00 AM,74,56,44,29.96,6,WSW,3.5,,,,,250,2013-07-21 00:00:00
12:00 AM,73.4,57.2,57,30.01,-9999.0,WSW,4.6,-,N/A,,Clear,250,2013-07-21 00:00:00
12:30 AM,73.4,57.2,57,30.01,-9999.0,WSW,4.6,-,N/A,,Clear,240,2013-07-21 00:30:00
1:00 AM,71.6,57.2,60,30.01,-9999.0,WSW,5.8,-,N/A,,Clear,250,2013-07-21 01:00:00
1:30 AM,71.6,57.2,60,30.01,-9999.0,SW,5.8,-,N/A,,Clear,230,2013-07-21 01:30:00
2:00 AM,69.8,57.2,64,30.01,-9999.0,SW,5.8,-,N/A,,Clear,220,2013-07-21 02:00:00
2:30 AM,69.8,57.2,64,30.01,-9999.0,SW,5.8,-,N/A,,Clear,230,2013-07-21 02:30:00
3:00 AM,68,57,59,29.95,6,SW,5.8,,,,,220,2013-07-21 03:00:00
3:00 AM,68.0,57.2,68,30.01,-9999.0,SW,4.6,-,N/A,,Clear,220,2013-07-21 03:00:00
3:30 AM,68.0,57.2,68,30.01,-9999.0,SW,5.8,-,N/A,,Clear,220,2013-07-21 03:30:00
4:00 AM,66.2,57.2,73,30.01,-9999.0,SW,8.1,-,N/A,,Clear,220,2013-07-21 04:00:00
4:30 AM,66.2,57.2,73,30.01,-9999.0,WSW,5.8,-,N/A,,Clear,240,2013-07-21 04:30:00
5:00 AM,64.4,57.2,77,30.01,-9999.0,West,4.6,-,N/A,,Clear,270,2013-07-21 05:00:00
5:30 AM,62.6,57.2,82,30.01,-9999.0,West,3.5,-,N/A,,Clear,270,2013-07-21 05:30:00
6:00 AM,63,57,76,29.98,6,WSW,4.6,,,,,240,2013-07-21 06:00:00
6:00 AM,62.6,57.2,82,30.01,-9999.0,WSW,4.6,-,N/A,,Clear,240,2013-07-21 06:00:00
6:30 AM,64.4,57.2,77,30.01,-9999.0,WSW,4.6,-,N/A,,Clear,240,2013-07-21 06:30:00
7:00 AM,64.4,59.0,83,30.01,-9999.0,WSW,5.8,-,N/A,,Clear,240,2013-07-21 07:00:00
7:30 AM,66.2,59.0,78,30.01,-9999.0,WSW,4.6,-,N/A,,Clear,250,2013-07-21 07:30:00
8:00 AM,68.0,59.0,73,30.04,-9999.0,WSW,3.5,-,N/A,,Clear,250,2013-07-21 08:00:00
8:30 AM,71.6,59.0,64,30.04,-9999.0,WNW,3.5,-,N/A,,Clear,290,2013-07-21 08:30:00
9:00 AM,73,59,52,29.97,6,NNW,3.5,,,,,330,2013-07-21 09:00:00
9:00 AM,73.4,59.0,61,30.04,-9999.0,NNW,3.5,-,N/A,,Clear,330,2013-07-21 09:00:00
9:30 AM,75.2,59.0,57,30.04,6.2,Variable,2.3,-,N/A,,Unknown,0,2013-07-21 09:30:00
10:00 AM,77.0,59.0,54,30.04,-9999.0,Variable,3.5,-,N/A,,Clear,0,2013-07-21 10:00:00
10:30 AM,78.8,57.2,47,30.04,-9999.0,Variable,4.6,-,N/A,,Clear,0,2013-07-21 10:30:00
11:00 AM,80.6,57.2,45,30.04,-9999.0,NW,4.6,-,N/A,,Clear,310,2013-07-21 11:00:00
11:30 AM,82.4,57.2,42,30.04,-9999.0,North,5.8,-,N/A,,Clear,10,2013-07-21 11:30:00
12:00 PM,85,57,29,29.93,6,North,4.6,,,,,0,2013-07-21 12:00:00
12:00 PM,84.2,57.2,40,30.04,-9999.0,North,3.5,-,N/A,,Clear,360,2013-07-21 12:00:00
12:30 PM,87.8,57.2,35,30.01,-9999.0,North,4.6,-,N/A,,Clear,10,2013-07-21 12:30:00
1:00 PM,89.6,55.4,31,30.01,-9999.0,NNW,6.9,-,N/A,,Clear,330,2013-07-21 13:00:00
1:30 PM,89.6,55.4,31,30.01,-9999.0,North,4.6,-,N/A,,Clear,10,2013-07-21 13:30:00
2:00 PM,91.4,55.4,29,30.01,-9999.0,Variable,6.9,-,N/A,,Clear,0,2013-07-21 14:00:00
2:30 PM,93.2,53.6,26,30.01,-9999.0,NW,6.9,-,N/A,,Clear,320,2013-07-21 14:30:00
3:00 PM,93,52,16,29.87,6,WNW,5.8,,,,,290,2013-07-21 15:00:00
3:00 PM,93.2,53.6,26,29.98,-9999.0,Variable,4.6,-,N/A,,Clear,0,2013-07-21 15:00:00
3:30 PM,93.2,51.8,24,29.98,-9999.0,North,6.9,-,N/A,,Clear,10,2013-07-21 15:30:00
4:00 PM,95.0,50.0,22,29.98,-9999.0,NW,5.8,-,N/A,,Clear,310,2013-07-21 16:00:00
4:30 PM,95.0,50.0,22,29.98,-9999.0,NW,5.8,-,N/A,,Clear,320,2013-07-21 16:30:00
5:00 PM,96.8,48.2,19,29.98,-9999.0,Variable,4.6,-,N/A,,Clear,0,2013-07-21 17:00:00
5:30 PM,95.0,46.4,19,29.98,-9999.0,North,5.8,-,N/A,,Clear,350,2013-07-21 17:30:00
6:00 PM,95,45,10,29.85,6,North,6.9,,,,,0,2013-07-21 18:00:00
6:00 PM,96.8,46.4,18,29.98,-9999.0,North,5.8,-,N/A,,Clear,10,2013-07-21 18:00:00
6:30 PM,95.0,44.6,18,29.98,-9999.0,North,6.9,-,N/A,,Clear,360,2013-07-21 18:30:00
7:00 PM,95.0,44.6,18,29.98,-9999.0,North,5.8,-,N/A,,Clear,360,2013-07-21 19:00:00
7:30 PM,93.2,42.8,17,29.98,-9999.0,NNE,6.9,-,N/A,,Clear,20,2013-07-21 19:30:00
8:00 PM,91.4,42.8,18,29.98,-9999.0,NNE,6.9,-,N/A,,Clear,20,2013-07-21 20:00:00
8:30 PM,89.6,51.8,27,29.98,-9999.0,North,10.4,-,N/A,,Clear,360,2013-07-21 20:30:00
9:00 PM,86,54,23,29.91,6,North,9.2,,,,,0,2013-07-21 21:00:00
9:00 PM,86.0,53.6,33,30.01,-9999.0,North,10.4,-,N/A,,Clear,360,2013-07-21 21:00:00
9:30 PM,84.2,55.4,37,30.01,-9999.0,NNE,12.7,-,N/A,,Clear,20,2013-07-21 21:30:00
10:00 PM,82.4,55.4,39,30.01,-9999.0,NNE,9.2,-,N/A,,Clear,20,2013-07-21 22:00:00
10:30 PM,80.6,55.4,42,30.01,-9999.0,NNE,8.1,-,N/A,,Clear,30,2013-07-21 22:30:00
11:00 PM,78.8,55.4,44,30.01,-9999.0,NE,5.8,-,N/A,,Clear,40,2013-07-21 23:00:00
11:30 PM,78.8,55.4,44,30.01,-9999.0,ENE,5.8,-,N/A,,Clear,60,2013-07-21 23:30:00
11:45 PM,78,56,36,29.94,6,ENE,3.5,,,,,70,2013-07-21 23:45:00